sat.trackr.live / text

‹ back to catalog

STARLINK-1762

NORAD 46342 · 2020-062T

PAYLOAD ACTIVE UNKNOWN

§ Identity

Operator
Country
US
Launch date
2020-09-03
Launch site
AFETR
Launch vehicle
Mass (kg)
RCS (m²)

Purposes: comms

External: N2YO · Heavens-Above · Gunter

§ Orbital elements

Epoch: 2026-09-20T04:38:29.092128Z

Period
92.99 min
Inclination
53.1504°
Eccentricity
0.0004774
Mean motion
15.48570474 rev/d
Perigee alt
417.7 km
Apogee alt
424.2 km
Semi-major
6,799.0 km
B*
9.5075e-4
RAAN
175.5059°
Arg perigee
118.7973°
Mean anomaly
241.3516°
Rev number
33,434

§ Raw data

STARLINK-17621 46342U 20062T   26263.19339227  .00051436  00000+0  95075-3 0  99912 46342  53.1504 175.5059 0004774 118.7973 241.3516 15.48570474334343

JSON: /api/v1/satellites/46342 · /tle

For live sub-satellite position, see the globe view (requires WebGL).

§ Visibility from observer

Set your observer location to see the next 7 days of passes ≥ 10°. The values pass through the URL so the page stays shareable.

No JS? Fill the form by hand. The geolocation button needs JavaScript.